Location: ??????????
(54.8537°N, 38.8755°E)
Time: 01:27:25
(UTC+00:00)

Transit 4A - Pass Details

Date: 18 September 2024
Orbit: 865 x 977 km, 66.8° (Epoch: 09 October)

Event Time Altitude Azimuth Distance (km) Brightness Sun altitude
Exits shadow 01:50:32 14° 258° (WSW) 2,275 9.3 -11.0°
Maximum altitude 01:55:23 45° 328° (NNW) 1,216 8.4 -10.4°
Drops below altitude 10° 02:01:15 10° 41° (NE) 2,641 11.3 -9.6°
Sets 02:03:58 0° 47° (NE) 3,605 12.3 -9.2°
